Time,TemperatureF,DewpointF,PressureIn,WindDirection,WindDirectionDegrees,WindSpeedMPH,WindSpeedGustMPH,Humidity,HourlyPrecipIn,Conditions,Clouds,dailyrainin,SoftwareType,DateUTC
2013-03-08 06:16:00,29.0,28.0,29.49,NW,315,10.0,15.0,94,0.00,,,0.06,Rainwise IP-100,2013-03-08 11:16:00,
2013-03-08 06:21:00,29.0,28.0,29.49,North,360,8.0,19.0,94,0.36,,,0.06,Rainwise IP-100,2013-03-08 11:21:00,
2013-03-08 06:26:00,29.0,28.0,29.49,North,360,12.0,16.0,94,0.36,,,0.06,Rainwise IP-100,2013-03-08 11:26:00,
2013-03-08 06:31:00,29.0,28.0,29.49,NNW,337,10.0,21.0,94,0.00,,,0.06,Rainwise IP-100,2013-03-08 11:31:00,
2013-03-08 06:36:00,29.0,28.0,29.49,NW,315,9.0,19.0,94,0.00,,,0.06,Rainwise IP-100,2013-03-08 11:36:00,
2013-03-08 06:41:00,29.0,28.0,29.50,NW,315,13.0,18.0,94,0.00,,,0.06,Rainwise IP-100,2013-03-08 11:41:00,
2013-03-08 06:46:00,29.0,28.0,29.50,NE,45,7.0,19.0,94,0.00,,,0.06,Rainwise IP-100,2013-03-08 11:46:00,
2013-03-08 06:51:00,29.0,28.0,29.50,NW,315,10.0,19.0,94,0.00,,,0.06,Rainwise IP-100,2013-03-08 11:51:00,
2013-03-08 06:56:00,29.0,28.0,29.50,NNW,337,13.0,20.0,94,0.00,,,0.06,Rainwise IP-100,2013-03-08 11:56:00,
2013-03-08 07:01:00,29.0,28.0,29.50,NNW,337,12.0,20.0,94,0.00,,,0.06,Rainwise IP-100,2013-03-08 12:01:00,
2013-03-08 07:06:00,29.0,28.0,29.50,NNW,337,13.0,17.0,94,0.00,,,0.06,Rainwise IP-100,2013-03-08 12:06:00,
2013-03-08 07:11:00,29.0,28.0,29.50,North,360,11.0,21.0,94,0.00,,,0.06,Rainwise IP-100,2013-03-08 12:11:00,
2013-03-08 07:16:00,29.0,28.0,29.50,NNW,337,10.0,22.0,94,0.00,,,0.06,Rainwise IP-100,2013-03-08 12:16:00,
2013-03-08 07:21:00,29.0,28.0,29.50,NNW,337,15.0,24.0,94,0.00,,,0.06,Rainwise IP-100,2013-03-08 12:21:00,
2013-03-08 07:26:00,29.0,28.0,29.50,North,360,15.0,25.0,94,0.00,,,0.06,Rainwise IP-100,2013-03-08 12:26:00,
2013-03-08 07:31:00,29.0,28.0,29.50,NNW,337,9.0,19.0,94,0.00,,,0.06,Rainwise IP-100,2013-03-08 12:31:00,
2013-03-08 07:36:00,28.0,26.0,29.50,North,360,17.0,20.0,94,0.00,,,0.06,Rainwise IP-100,2013-03-08 12:36:00,
2013-03-08 07:41:00,29.0,28.0,29.50,NNW,337,11.0,20.0,94,0.00,,,0.06,Rainwise IP-100,2013-03-08 12:41:00,
2013-03-08 07:46:00,29.0,28.0,29.50,NNW,337,8.0,15.0,94,0.00,,,0.06,Rainwise IP-100,2013-03-08 12:46:00,
2013-03-08 07:51:00,29.0,28.0,29.51,NNW,337,9.0,18.0,94,0.00,,,0.06,Rainwise IP-100,2013-03-08 12:51:00,
2013-03-08 07:56:00,28.0,26.0,29.51,NNW,337,8.0,17.0,94,0.00,,,0.06,Rainwise IP-100,2013-03-08 12:56:00,
2013-03-08 08:01:00,29.0,28.0,29.51,North,360,9.0,15.0,94,0.00,,,0.06,Rainwise IP-100,2013-03-08 13:01:00,
2013-03-08 08:06:00,29.0,28.0,29.51,NNW,337,12.0,19.0,94,0.00,,,0.06,Rainwise IP-100,2013-03-08 13:06:00,
2013-03-08 08:11:00,29.0,28.0,29.50,NNW,337,16.0,17.0,94,0.00,,,0.06,Rainwise IP-100,2013-03-08 13:11:00,
2013-03-08 08:16:00,29.0,28.0,29.50,North,360,11.0,22.0,94,0.00,,,0.06,Rainwise IP-100,2013-03-08 13:16:00,
2013-03-08 08:21:00,29.0,28.0,29.51,NW,315,12.0,16.0,94,0.00,,,0.06,Rainwise IP-100,2013-03-08 13:21:00,
2013-03-08 08:26:00,29.0,28.0,29.51,NNW,337,17.0,26.0,94,0.00,,,0.06,Rainwise IP-100,2013-03-08 13:26:00,
2013-03-08 08:31:00,29.0,28.0,29.50,NNW,337,19.0,23.0,94,0.00,,,0.06,Rainwise IP-100,2013-03-08 13:31:00,
2013-03-08 08:36:00,29.0,28.0,29.50,North,360,7.0,19.0,94,0.00,,,0.06,Rainwise IP-100,2013-03-08 13:36:00,
2013-03-08 08:41:00,29.0,28.0,29.51,North,360,14.0,16.0,94,0.00,,,0.06,Rainwise IP-100,2013-03-08 13:41:00,
2013-03-08 08:46:00,29.0,28.0,29.51,North,360,6.0,20.0,94,0.00,,,0.06,Rainwise IP-100,2013-03-08 13:46:00,
2013-03-08 08:51:00,29.0,28.0,29.51,NNW,337,12.0,22.0,94,0.00,,,0.06,Rainwise IP-100,2013-03-08 13:51:00,
2013-03-08 08:56:00,29.0,28.0,29.51,NW,315,9.0,20.0,94,0.00,,,0.06,Rainwise IP-100,2013-03-08 13:56:00,
2013-03-08 09:01:00,29.0,28.0,29.51,NW,315,12.0,21.0,94,0.00,,,0.06,Rainwise IP-100,2013-03-08 14:01:00,
2013-03-08 09:06:00,29.0,28.0,29.51,NW,315,7.0,20.0,94,0.00,,,0.06,Rainwise IP-100,2013-03-08 14:06:00,
2013-03-08 09:11:00,29.0,28.0,29.51,NNW,337,16.0,23.0,94,0.00,,,0.06,Rainwise IP-100,2013-03-08 14:11:00,
2013-03-08 09:16:00,29.0,28.0,29.51,North,360,10.0,17.0,94,0.00,,,0.06,Rainwise IP-100,2013-03-08 14:16:00,
2013-03-08 09:21:00,29.0,28.0,29.51,NNW,337,11.0,14.0,94,0.00,,,0.06,Rainwise IP-100,2013-03-08 14:21:00,
2013-03-08 09:26:00,29.0,28.0,29.51,NNW,337,11.0,14.0,94,0.00,,,0.06,Rainwise IP-100,2013-03-08 14:26:00,
2013-03-08 09:31:00,29.0,28.0,29.51,NNW,337,11.0,14.0,94,0.00,,,0.06,Rainwise IP-100,2013-03-08 14:31:00,
2013-03-08 09:36:00,29.0,28.0,29.51,NNW,337,11.0,14.0,94,0.00,,,0.06,Rainwise IP-100,2013-03-08 14:36:00,
2013-03-08 09:41:00,29.0,28.0,29.51,NNW,337,11.0,14.0,94,0.00,,,0.06,Rainwise IP-100,2013-03-08 14:41:00,
2013-03-08 09:46:00,29.0,28.0,29.51,NNW,337,11.0,14.0,94,0.00,,,0.06,Rainwise IP-100,2013-03-08 14:46:00,
2013-03-08 09:51:00,29.0,28.0,29.51,NNW,337,12.0,14.0,94,0.00,,,0.06,Rainwise IP-100,2013-03-08 14:51:00,
2013-03-08 09:56:00,29.0,28.0,29.51,NNW,337,12.0,14.0,94,0.00,,,0.06,Rainwise IP-100,2013-03-08 14:56:00,
2013-03-08 10:01:00,29.0,28.0,29.51,NNW,337,12.0,14.0,94,0.00,,,0.06,Rainwise IP-100,2013-03-08 15:01:00,
2013-03-08 10:06:00,29.0,28.0,29.51,NNW,337,12.0,14.0,94,0.00,,,0.06,Rainwise IP-100,2013-03-08 15:06:00,
2013-03-08 10:11:00,29.0,28.0,29.51,NNW,337,10.0,14.0,94,0.00,,,0.06,Rainwise IP-100,2013-03-08 15:11:00,
2013-03-08 10:16:00,29.0,28.0,29.51,NNW,337,12.0,14.0,94,0.00,,,0.06,Rainwise IP-100,2013-03-08 15:16:00,
2013-03-08 10:21:00,29.0,28.0,29.51,NNW,337,10.0,14.0,94,0.00,,,0.06,Rainwise IP-100,2013-03-08 15:21:00,
2013-03-08 10:26:00,29.0,28.0,29.51,NNW,337,12.0,14.0,94,0.00,,,0.06,Rainwise IP-100,2013-03-08 15:26:00,
2013-03-08 10:31:00,29.0,28.0,29.51,NNW,337,10.0,14.0,94,0.00,,,0.06,Rainwise IP-100,2013-03-08 15:31:00,
2013-03-08 10:36:00,29.0,28.0,29.51,NNW,337,10.0,14.0,94,0.00,,,0.06,Rainwise IP-100,2013-03-08 15:36:00,
2013-03-08 10:41:00,29.0,28.0,29.51,NNW,337,10.0,14.0,94,0.00,,,0.06,Rainwise IP-100,2013-03-08 15:41:00,
2013-03-08 10:46:00,29.0,28.0,29.51,NNW,337,10.0,14.0,94,0.00,,,0.06,Rainwise IP-100,2013-03-08 15:46:00,
2013-03-08 10:51:00,29.0,28.0,29.51,NNW,337,10.0,14.0,94,0.00,,,0.06,Rainwise IP-100,2013-03-08 15:51:00,
2013-03-08 10:56:00,29.0,28.0,29.51,NNW,337,10.0,14.0,94,0.00,,,0.06,Rainwise IP-100,2013-03-08 15:56:00,
2013-03-08 11:01:00,29.0,28.0,29.51,NNW,337,10.0,14.0,94,0.00,,,0.06,Rainwise IP-100,2013-03-08 16:01:00,
2013-03-08 11:06:00,29.0,28.0,29.51,NW,315,12.0,14.0,94,0.00,,,0.06,Rainwise IP-100,2013-03-08 16:06:00,
2013-03-08 11:11:00,29.0,28.0,29.51,NW,315,12.0,14.0,94,0.00,,,0.06,Rainwise IP-100,2013-03-08 16:11:00,
2013-03-08 11:16:00,29.0,28.0,29.51,NW,315,12.0,14.0,94,0.00,,,0.06,Rainwise IP-100,2013-03-08 16:16:00,
2013-03-08 11:21:00,29.0,28.0,29.51,NW,315,12.0,14.0,94,0.00,,,0.06,Rainwise IP-100,2013-03-08 16:21:00,
2013-03-08 11:26:00,29.0,28.0,29.51,NNW,337,10.0,14.0,94,0.00,,,0.06,Rainwise IP-100,2013-03-08 16:26:00,
2013-03-08 11:31:00,29.0,28.0,29.51,NW,315,13.0,14.0,94,0.00,,,0.06,Rainwise IP-100,2013-03-08 16:31:00,
2013-03-08 11:36:00,29.0,28.0,29.51,NNW,337,10.0,14.0,94,0.00,,,0.06,Rainwise IP-100,2013-03-08 16:36:00,
2013-03-08 11:41:00,29.0,28.0,29.51,NW,315,12.0,14.0,94,0.00,,,0.06,Rainwise IP-100,2013-03-08 16:41:00,
2013-03-08 11:46:00,29.0,28.0,29.51,NW,315,13.0,14.0,94,0.00,,,0.06,Rainwise IP-100,2013-03-08 16:46:00,
2013-03-08 11:51:00,29.0,28.0,29.51,NW,315,13.0,14.0,94,0.00,,,0.06,Rainwise IP-100,2013-03-08 16:51:00,
2013-03-08 11:56:00,29.0,28.0,29.51,NNW,337,10.0,14.0,94,0.00,,,0.06,Rainwise IP-100,2013-03-08 16:56:00,
2013-03-08 12:01:00,29.0,28.0,29.51,NW,315,13.0,14.0,94,0.00,,,0.06,Rainwise IP-100,2013-03-08 17:01:00,
2013-03-08 12:06:00,29.0,28.0,29.51,NW,315,13.0,14.0,94,0.00,,,0.06,Rainwise IP-100,2013-03-08 17:06:00,
2013-03-08 12:11:00,29.0,28.0,29.51,NW,315,13.0,14.0,94,0.00,,,0.06,Rainwise IP-100,2013-03-08 17:11:00,
2013-03-08 12:16:00,29.0,28.0,29.51,NW,315,13.0,14.0,94,0.00,,,0.06,Rainwise IP-100,2013-03-08 17:16:00,
2013-03-08 12:21:00,29.0,28.0,29.51,NW,315,13.0,14.0,94,0.00,,,0.06,Rainwise IP-100,2013-03-08 17:21:00,
2013-03-08 12:26:00,29.0,28.0,29.51,NNW,337,11.0,14.0,94,0.00,,,0.06,Rainwise IP-100,2013-03-08 17:26:00,
2013-03-08 12:31:00,29.0,28.0,29.51,NNW,337,11.0,14.0,94,0.00,,,0.06,Rainwise IP-100,2013-03-08 17:31:00,
2013-03-08 12:36:00,29.0,28.0,29.51,NNW,337,11.0,14.0,94,0.00,,,0.06,Rainwise IP-100,2013-03-08 17:36:00,
2013-03-08 12:41:00,29.0,28.0,29.51,NNW,337,11.0,14.0,94,0.00,,,0.06,Rainwise IP-100,2013-03-08 17:41:00,
2013-03-08 12:46:00,29.0,28.0,29.51,NNW,337,11.0,14.0,94,0.00,,,0.06,Rainwise IP-100,2013-03-08 17:46:00,
2013-03-08 12:51:00,29.0,28.0,29.51,NNW,337,11.0,14.0,94,0.00,,,0.06,Rainwise IP-100,2013-03-08 17:51:00,
2013-03-08 12:56:00,29.0,28.0,29.51,NNW,337,11.0,14.0,94,0.00,,,0.06,Rainwise IP-100,2013-03-08 17:56:00,
2013-03-08 13:01:00,29.0,28.0,29.51,NNW,337,11.0,14.0,94,0.00,,,0.06,Rainwise IP-100,2013-03-08 18:01:00,
2013-03-08 13:06:00,29.0,28.0,29.51,NNW,337,11.0,14.0,94,0.00,,,0.06,Rainwise IP-100,2013-03-08 18:06:00,
2013-03-08 13:11:00,29.0,28.0,29.51,North,360,12.0,14.0,94,0.00,,,0.06,Rainwise IP-100,2013-03-08 18:11:00,
2013-03-08 13:16:00,29.0,28.0,29.51,North,360,12.0,14.0,94,0.00,,,0.06,Rainwise IP-100,2013-03-08 18:16:00,
2013-03-08 13:20:00,29.0,28.0,29.51,NNW,337,12.0,14.0,94,0.00,,,0.06,Rainwise IP-100,2013-03-08 18:20:00,
2013-03-08 17:14:00,42.0,28.0,29.58,NW,315,6.0,14.0,57,0.00,,,0.14,Rainwise IP-100,2013-03-08 22:14:00,
2013-03-08 17:19:00,42.0,28.0,29.58,NNW,337,5.0,12.0,55,0.48,,,0.14,Rainwise IP-100,2013-03-08 22:19:00,
2013-03-08 17:24:00,42.0,26.0,29.58,NW,315,6.0,9.0,52,0.48,,,0.14,Rainwise IP-100,2013-03-08 22:24:00,
2013-03-08 17:29:00,42.0,26.0,29.58,NNW,337,7.0,9.0,52,0.00,,,0.14,Rainwise IP-100,2013-03-08 22:29:00,
2013-03-08 17:34:00,42.0,28.0,29.58,NW,315,7.0,9.0,54,0.00,,,0.14,Rainwise IP-100,2013-03-08 22:34:00,
2013-03-08 17:39:00,42.0,28.0,29.59,NW,315,6.0,12.0,54,0.00,,,0.14,Rainwise IP-100,2013-03-08 22:39:00,
2013-03-08 17:44:00,42.0,26.0,29.59,North,360,11.0,12.0,50,0.00,,,0.14,Rainwise IP-100,2013-03-08 22:44:00,
2013-03-08 17:49:00,43.0,26.0,29.59,NNW,337,7.0,12.0,50,0.00,,,0.14,Rainwise IP-100,2013-03-08 22:49:00,
2013-03-08 17:54:00,42.0,26.0,29.59,NW,315,9.0,11.0,52,0.00,,,0.14,Rainwise IP-100,2013-03-08 22:54:00,
2013-03-08 17:59:00,43.0,24.0,29.59,North,360,11.0,12.0,48,0.00,,,0.14,Rainwise IP-100,2013-03-08 22:59:00,
2013-03-08 18:04:00,43.0,24.0,29.59,North,360,9.0,13.0,48,0.00,,,0.14,Rainwise IP-100,2013-03-08 23:04:00,
2013-03-08 18:09:00,43.0,24.0,29.60,North,360,9.0,14.0,47,0.00,,,0.14,Rainwise IP-100,2013-03-08 23:09:00,
2013-03-08 18:14:00,43.0,24.0,29.60,NW,315,9.0,16.0,46,0.06,,,0.15,Rainwise IP-100,2013-03-08 23:14:00,
2013-03-08 18:19:00,43.0,24.0,29.60,NE,45,13.0,13.0,45,0.06,,,0.15,Rainwise IP-100,2013-03-08 23:19:00,
2013-03-08 18:24:00,43.0,24.0,29.60,NNW,337,10.0,14.0,46,0.00,,,0.15,Rainwise IP-100,2013-03-08 23:24:00,
2013-03-08 18:29:00,43.0,24.0,29.61,NNW,337,9.0,16.0,45,0.00,,,0.15,Rainwise IP-100,2013-03-08 23:29:00,
2013-03-08 18:34:00,43.0,24.0,29.61,North,360,10.0,12.0,45,0.00,,,0.15,Rainwise IP-100,2013-03-08 23:34:00,
2013-03-08 18:39:00,43.0,23.0,29.61,NNW,337,9.0,16.0,44,0.00,,,0.15,Rainwise IP-100,2013-03-08 23:39:00,
2013-03-08 18:44:00,43.0,23.0,29.61,North,360,8.0,16.0,43,0.00,,,0.15,Rainwise IP-100,2013-03-08 23:44:00,
2013-03-08 18:49:00,43.0,23.0,29.61,NNE,22,6.0,15.0,43,0.00,,,0.15,Rainwise IP-100,2013-03-08 23:49:00,
2013-03-08 18:54:00,43.0,24.0,29.61,North,360,6.0,12.0,45,0.00,,,0.15,Rainwise IP-100,2013-03-08 23:54:00,
2013-03-08 18:59:00,43.0,23.0,29.61,NNE,22,13.0,17.0,44,0.00,,,0.15,Rainwise IP-100,2013-03-08 23:59:00,
2013-03-08 19:04:00,43.0,23.0,29.61,NNW,337,7.0,13.0,44,0.00,,,0.15,Rainwise IP-100,2013-03-09 00:04:00,
2013-03-08 19:09:00,43.0,23.0,29.61,North,360,9.0,12.0,44,0.00,,,0.15,Rainwise IP-100,2013-03-09 00:09:00,
2013-03-08 19:14:00,43.0,23.0,29.61,NW,315,12.0,15.0,43,0.00,,,0.15,Rainwise IP-100,2013-03-09 00:14:00,
2013-03-08 19:19:00,43.0,24.0,29.62,NNW,337,10.0,13.0,45,0.00,,,0.15,Rainwise IP-100,2013-03-09 00:19:00,
2013-03-08 19:24:00,43.0,23.0,29.62,North,360,7.0,17.0,43,0.00,,,0.15,Rainwise IP-100,2013-03-09 00:24:00,
2013-03-08 19:29:00,43.0,23.0,29.62,NW,315,9.0,14.0,43,0.00,,,0.15,Rainwise IP-100,2013-03-09 00:29:00,
2013-03-08 19:34:00,42.0,23.0,29.62,North,360,7.0,13.0,45,0.00,,,0.15,Rainwise IP-100,2013-03-09 00:34:00,
2013-03-08 19:39:00,42.0,23.0,29.62,NNW,337,7.0,13.0,45,0.00,,,0.15,Rainwise IP-100,2013-03-09 00:39:00,
2013-03-08 19:44:00,42.0,23.0,29.62,NNW,337,7.0,10.0,46,0.00,,,0.15,Rainwise IP-100,2013-03-09 00:44:00,
2013-03-08 19:49:00,42.0,23.0,29.63,NW,315,7.0,12.0,45,0.00,,,0.15,Rainwise IP-100,2013-03-09 00:49:00,
2013-03-08 19:54:00,41.0,23.0,29.63,NNW,337,6.0,10.0,46,0.00,,,0.15,Rainwise IP-100,2013-03-09 00:54:00,
2013-03-08 19:59:00,41.0,23.0,29.63,NW,315,5.0,11.0,47,0.00,,,0.15,Rainwise IP-100,2013-03-09 00:59:00,
2013-03-08 20:04:00,41.0,23.0,29.63,NNW,337,7.0,11.0,47,0.00,,,0.15,Rainwise IP-100,2013-03-09 01:04:00,
2013-03-08 20:09:00,41.0,23.0,29.63,North,360,9.0,16.0,45,0.00,,,0.15,Rainwise IP-100,2013-03-09 01:09:00,
2013-03-08 20:14:00,41.0,23.0,29.63,North,360,9.0,14.0,45,0.00,,,0.15,Rainwise IP-100,2013-03-09 01:14:00,
2013-03-08 20:19:00,41.0,23.0,29.64,NW,315,8.0,13.0,46,0.00,,,0.15,Rainwise IP-100,2013-03-09 01:19:00,
2013-03-08 20:24:00,41.0,23.0,29.64,North,360,7.0,11.0,45,0.00,,,0.15,Rainwise IP-100,2013-03-09 01:24:00,
2013-03-08 20:29:00,41.0,23.0,29.64,NNW,337,8.0,15.0,45,0.00,,,0.15,Rainwise IP-100,2013-03-09 01:29:00,
2013-03-08 20:34:00,41.0,23.0,29.64,North,360,6.0,10.0,46,0.00,,,0.15,Rainwise IP-100,2013-03-09 01:34:00,
2013-03-08 20:39:00,41.0,23.0,29.64,NNW,337,7.0,11.0,47,0.00,,,0.15,Rainwise IP-100,2013-03-09 01:39:00,
2013-03-08 20:44:00,40.0,23.0,29.64,NW,315,10.0,10.0,46,0.00,,,0.15,Rainwise IP-100,2013-03-09 01:44:00,
2013-03-08 20:49:00,41.0,23.0,29.64,NNW,337,6.0,13.0,46,0.00,,,0.15,Rainwise IP-100,2013-03-09 01:49:00,
2013-03-08 20:54:00,40.0,23.0,29.64,NNW,337,6.0,9.0,47,0.00,,,0.15,Rainwise IP-100,2013-03-09 01:54:00,
2013-03-08 20:59:00,40.0,23.0,29.65,NW,315,4.0,8.0,48,0.00,,,0.15,Rainwise IP-100,2013-03-09 01:59:00,
2013-03-08 21:04:00,40.0,23.0,29.65,NW,315,6.0,10.0,49,0.00,,,0.15,Rainwise IP-100,2013-03-09 02:04:00,
2013-03-08 21:09:00,40.0,23.0,29.65,NNW,337,5.0,10.0,49,0.00,,,0.15,Rainwise IP-100,2013-03-09 02:09:00,
2013-03-08 21:14:00,39.0,23.0,29.65,NW,315,6.0,10.0,49,0.00,,,0.15,Rainwise IP-100,2013-03-09 02:14:00,
2013-03-08 21:19:00,39.0,23.0,29.66,NNW,337,6.0,8.0,49,0.00,,,0.15,Rainwise IP-100,2013-03-09 02:19:00,
2013-03-08 21:24:00,39.0,23.0,29.66,NNW,337,6.0,9.0,49,0.00,,,0.15,Rainwise IP-100,2013-03-09 02:24:00,
2013-03-08 21:29:00,39.0,23.0,29.66,NNW,337,9.0,10.0,49,0.00,,,0.15,Rainwise IP-100,2013-03-09 02:29:00,
2013-03-08 21:34:00,39.0,23.0,29.66,NW,315,6.0,11.0,49,0.00,,,0.15,Rainwise IP-100,2013-03-09 02:34:00,
2013-03-08 21:39:00,39.0,23.0,29.66,North,360,7.0,14.0,48,0.00,,,0.15,Rainwise IP-100,2013-03-09 02:39:00,
2013-03-08 21:44:00,39.0,23.0,29.66,NW,315,6.0,12.0,49,0.00,,,0.15,Rainwise IP-100,2013-03-09 02:44:00,
2013-03-08 21:49:00,39.0,23.0,29.66,NW,315,10.0,13.0,49,0.00,,,0.15,Rainwise IP-100,2013-03-09 02:49:00,
2013-03-08 21:54:00,39.0,23.0,29.66,NNW,337,6.0,13.0,50,0.00,,,0.15,Rainwise IP-100,2013-03-09 02:54:00,
2013-03-08 21:59:00,39.0,23.0,29.66,NNW,337,6.0,14.0,48,0.00,,,0.15,Rainwise IP-100,2013-03-09 02:59:00,
2013-03-08 22:04:00,39.0,23.0,29.66,North,360,7.0,12.0,48,0.00,,,0.15,Rainwise IP-100,2013-03-09 03:04:00,
2013-03-08 22:09:00,39.0,21.0,29.66,North,360,8.0,15.0,47,0.00,,,0.15,Rainwise IP-100,2013-03-09 03:09:00,
2013-03-08 22:14:00,39.0,21.0,29.66,North,360,8.0,13.0,47,0.00,,,0.15,Rainwise IP-100,2013-03-09 03:14:00,
2013-03-08 22:19:00,39.0,21.0,29.67,North,360,13.0,13.0,47,0.00,,,0.15,Rainwise IP-100,2013-03-09 03:19:00,
2013-03-08 22:24:00,39.0,21.0,29.67,NNW,337,9.0,13.0,47,0.00,,,0.15,Rainwise IP-100,2013-03-09 03:24:00,
2013-03-08 22:29:00,39.0,21.0,29.67,NW,315,9.0,13.0,47,0.00,,,0.15,Rainwise IP-100,2013-03-09 03:29:00,
2013-03-08 22:34:00,39.0,21.0,29.67,North,360,7.0,13.0,47,0.00,,,0.15,Rainwise IP-100,2013-03-09 03:34:00,
2013-03-08 22:39:00,39.0,21.0,29.67,North,360,10.0,13.0,47,0.00,,,0.15,Rainwise IP-100,2013-03-09 03:39:00,
2013-03-08 22:44:00,39.0,23.0,29.67,NNW,337,5.0,11.0,49,0.00,,,0.15,Rainwise IP-100,2013-03-09 03:44:00,
2013-03-08 22:49:00,38.0,23.0,29.67,NW,315,4.0,8.0,52,0.00,,,0.15,Rainwise IP-100,2013-03-09 03:49:00,
2013-03-08 22:54:00,37.0,23.0,29.67,NW,315,3.0,6.0,54,0.00,,,0.15,Rainwise IP-100,2013-03-09 03:54:00,
2013-03-08 22:59:00,36.0,23.0,29.67,WNW,292,2.0,6.0,56,0.00,,,0.15,Rainwise IP-100,2013-03-09 03:59:00,
2013-03-08 23:04:00,36.0,23.0,29.67,WNW,292,2.0,3.0,56,0.00,,,0.15,Rainwise IP-100,2013-03-09 04:04:00,
2013-03-08 23:09:00,36.0,23.0,29.67,WNW,292,2.0,3.0,56,0.00,,,0.15,Rainwise IP-100,2013-03-09 04:09:00,
2013-03-08 23:14:00,36.0,23.0,29.67,WNW,292,2.0,3.0,56,0.00,,,0.15,Rainwise IP-100,2013-03-09 04:14:00,
2013-03-08 23:19:00,36.0,23.0,29.67,WNW,292,2.0,3.0,56,0.00,,,0.15,Rainwise IP-100,2013-03-09 04:19:00,
2013-03-08 23:24:00,36.0,23.0,29.67,WNW,292,2.0,3.0,56,0.00,,,0.15,Rainwise IP-100,2013-03-09 04:24:00,
2013-03-08 23:29:00,36.0,23.0,29.67,WNW,292,2.0,3.0,56,0.00,,,0.15,Rainwise IP-100,2013-03-09 04:29:00,
2013-03-08 23:34:00,36.0,23.0,29.67,WNW,292,2.0,3.0,56,0.00,,,0.15,Rainwise IP-100,2013-03-09 04:34:00,
2013-03-08 23:39:00,36.0,23.0,29.67,WNW,292,1.0,3.0,56,0.00,,,0.15,Rainwise IP-100,2013-03-09 04:39:00,